Location: Misciano
(43.5000°N, 11.9500°E)
Time: 06:13:20
(UTC+00:00)

Lacrosse 5 - Pass Details

Date: 13 August 2020
Orbit: 716 x 722 km, 57.0° (Epoch: 21 September)

Event Time Altitude Azimuth Distance (km) Brightness Sun altitude
Rises 20:37:13 0° 312° (NW) 3,132 6.7 -21.6°
Reaches altitude 10° 20:39:37 10° 311° (NW) 2,210 5.5 -21.9°
Maximum altitude 20:44:42 80° 225° (SW) 735 1.8 -22.5°
Enters shadow 20:45:36 60° 152° (SSE) 821 1.8 -22.6°
